Terminal Aerodrome Forecast
Issued by NWS

Home | Current Version | Previous Version | Text Only | Print | Product List | Glossary On
Versions: 1 2 3 4 5 6 7 8 9 10 11 12 13 14 15 16 17 18 19 20 21 22 23 24 25 26 27 28 29
000
FTAK31 PANC 211829 AAA
TAFADU
TAF AMD
PADU 211829Z 2118/2218 32025G38KT 6SM -SHRA SCT025 BKN035
      TEMPO 2118/2121 2SM -RASN BKN025
     FM220300 31028G42KT 5SM -SHRASN OVC025=

USA.gov is the U.S. government's official web portal to all federal, state and local government web resources and services.